{"data":{"norad_id":64353,"intl_designator":"2025-126K","name":"STARLINK-34431","alt_names":[],"object_type":"PAYLOAD","status":"ACTIVE","operator":null,"country":"US","launch_date":"2025-06-13","launch_site_code":"AFWTR","launch_vehicle":null,"mission":null,"orbit_class":"UNKNOWN","rcs_meters":null,"size_class":null,"mass_kg":null,"dimensions":null,"purposes":["comms"],"wikipedia_slug":null,"has_3d_model":false,"image_url":null,"decayed_at":null,"tle_current":{"epoch":"2026-09-20T09:13:52.801824Z","epoch_age_seconds":144360,"freshness":"FRESH","line1":"1 64353U 25126K   26263.38463891  .00010055  00000+0  35368-3 0  9996","line2":"2 64353  70.0002 261.2365 0003489 270.8383  89.2392 15.29586205 69902","mean_motion":15.29586205,"eccentricity":0.0003489,"inclination_deg":70.0002,"raan_deg":261.2365,"arg_perigee_deg":270.8383,"mean_anomaly_deg":89.2392,"bstar":0.00035368,"rev_number":6990,"period_min":94.143108462462,"perigee_km":474.65658930265,"apogee_km":479.44013764928,"semimajor_km":6855.185363476,"source":"CELESTRAK","updated_at":"2026-09-21T09:00:35.317679Z"}}}